SCP
0 0 0 0 0 0 0 0 0 0 0 0 0 0 0 0 0 0 0 0 0 0 0 0 0 0 0 0 0 0 0 0 0 0 0 0 0 0 0 0 0 0 0 0 0 0 0
0 0 0 0 0 0 0 0 0 0 0 0 0 0 0 0 0 0 0 0 0 0 0 0 0 0 0 0 0 0 0 0 0 0 0 0 0 0 0 0 0 0 0 0 0 0 0
0 0 0 0 0 0 0 0 0 0 0 0 0 0 0 0 0 0 0 0 0 0 0 0 0 0 0 0 0 0 0 0 0 0 0 0 0 0 0 0 0 0 0 0 0 0 0
0 0 0 0 0 0 0 0 0 0 0 0 0 0 0 0 0 0 0 0 0 -0 -0 0 0 0 0 0 0 0 0 0 0 0 0 0 0 0 0 0 0 0 0 0 0 0 0
0 0 0 0 0 0 0 0 0 0 0 0 0 0 0 0 0 0 0 -0 -0 -0 -0 0 0 0 0 0 -0 0 0 0 0 0 0 0 0 0 0 0 0 0 0 0 0 0 0
-0 -0 -0 -0 0 0 0 0 0 0 0 0 0 0 0 0 0 0 0 -0 -0 -0 -0 -0 -0 0 -0 0 0 0 0 0 0 0 0 0 0 0 0 0 0 0 0 0 0 0 0
-0 -0 -0 -0 -0 -0 -0 0 0 0 0 0 0 0 0 0 0 0 0 0 0 -0 -0 0 0 0 0 0 0 0 0 0 0 0 0 0 0 0 0 0 0 0 0 0 -0 0 0
-0 -0 -0 -0 -0 -0 -0 -0 -0 -0 0 0 0 0 0 0 0 0 -0 0 0 0 0 0 0 0 -0 -0 0 0 0 0 0 0 0 0 0 -0 0 0 0 0 0 -0 0 0 0
-0 -0 -0 -0 -0 -0 0 0 0 0 0 0 0 0 0 0 0 -0 0 0 0 0 0 0 0 0 0 0 0 0 0 0 0 0 0 0 0 0 0 0 0 0 0 0 0 0 0
-0 -0 -0 -0 -0 -0 -0 0 0 0 0 0 0 0 0 -0 -0 0 -0 0 -0 0 -0 -0 -0 0 0 0 0 -0 0 0 0 0 0 0 0 0 0 0 0 0 0 0 0 0 0
-0 -0 -0 -0 -0 -0 -0 0 0 0 0 0 0 -0 -0 0 -0 0 0 0 0 0 -0 0 0 0 0 -0 0 0 0 0 0 0 0 0 0 0 0 0 0 -0 0 0 0 0 0
-0 -0 -0 -0 -0 -0 0 0 0 0 0 0 0 -0 -0 0 0 -0 -0 0 0 -0 0 0 0 0 0 0 0 0 -0 -0 0 0 0 0 0 0 0 0 0 0 0 0 0 0 0
0 -0 -0 -0 -0 0 0 0 0 0 0 0 0 -0 0 0 0 0 0 0 -0 -0 0 0 0 0 0 -0 0 0 0 0 0 0 0 0 0 0 0 0 0 0 0 0 0 0 0
0 0 0 0 0 0 0 0 0 0 0 0 0 -0 0 0 0 0 0 0 -0 -0 0 -0 0 0 0 0 -0 0 0 0 0 0 0 0 0 0 0 0 0 0 0 0 0 0 0
0 0 0 0 0 0 0 0 0 0 0 0 0 0 0 0 0 0 0 -0 -0 0 0 -0 -0 0 0 0 0 0 0 0 0 0 0 0 0 0 0 0 0 0 0 0 0 0 0
0 0 0 0 0 0 0 0 0 0 0 0 0 0 0 0 0 0 0 -0 0 0 0 -0 -0 0 -0 -0 0 0 0 0 0 0 0 0 0 0 0 0 0 0 0 0 0 0 0
0 0 0 0 0 0 0 0 0 0 0 0 0 0 0 0 0 0 0 -0 0 0 -0 -0 -0 -0 -0 0 -0 -0 0 0 -0 -0 0 0 0 0 0 0 0 0 0 0 0 0 0
0 0 0 0 0 0 0 0 0 0 0 0 0 0 0 0 0 0 0 0 -0 -0 -0 -0 0 -0 -0 -0 -0 -0 0 0 -0 -0 0 0 0 0 0 -0 0 0 0 0 0 0 0
0 0 0 0 0 0 0 0 0 0 0 0 0 0 0 0 0 0 0 0 0 -0 -0 -0 0 0 -0 -0 0 0 0 0 0 -0 0 0 0 0 0 0 0 0 0 0 0 0 0
0 0 0 0 0 0 0 0 0 0 0 0 0 0 0 0 0 0 0 0 0 0 -0 -0 -0 -0 -0 -0 -0 0 0 -0 -0 -0 0 0 0 0 0 0 0 0 0 0 0 0 0
0 0 0 0 0 0 0 0 0 0 0 0 0 0 0 0 0 0 0 0 0 0 0 -0 -0 -0 -0 -0 -0 -0 -0 0 0 -0 0 0 0 0 -0 0 0 0 0 0 0 0 0
0 0 0 0 0 0 0 0 0 0 0 0 0 0 0 0 0 0 0 0 0 0 0 -0 -0 -0 -0 -0 -0 -0 0 0 0 0 0 0 -0 0 -0 0 0 0 0 0 0 0 0
0 0 0 0 0 0 0 0 0 0 0 0 0 0 0 0 0 0 0 0 0 0 0 -0 -0 -0 -0 -0 -0 -0 -0 -0 -0 -0 0 0 0 0 -0 0 0 0 0 0 0 0 0
0 0 0 0 0 0 0 0 0 0 0 0 0 0 0 0 0 0 0 0 0 0 0 -0 -0 -0 -0 -0 -0 -0 -0 -0 -0 -0 -0 0 0 -0 0 0 0 0 0 0 0 0 0
0 0 0 0 0 0 0 0 0 0 0 0 0 0 0 0 0 0 0 0 0 0 0 0 0 0 -0 -0 -0 -0 -0 -0 -0 -0 -0 0 0 0 0 0 0 0 0 0 0 0 0
0 0 0 0 0 0 0 0 0 0 0 0 0 0 0 0 0 0 0 0 0 0 0 0 -0 -0 0 0 0 -0 0 -0 -0 0 0 0 0 0 0 0 0 0 0 0 0 0 0
0 0 0 0 0 0 0 0 0 0 0 0 0 0 0 0 0 0 0 0 0 0 0 -0 -0 0 0 0 0 0 0 0 0 0 0 0 0 0 0 0 -0 0 0 0 0 0 0
0 0 0 0 0 0 0 0 0 0 0 0 0 0 0 0 0 0 0 0 0 0 0 -0 -0 0 0 0 0 -0 0 0 0 0 0 0 0 0 0 0 0 0 0 0 0 0 0
0 0 0 0 0 0 0 0 0 0 0 0 0 0 0 0 0 -0 0 0 0 0 0 0 -0 -0 0 -0 0 0 0 0 0 0 0 0 0 0 0 0 0 0 0 0 0 0 0
Wind_Speed_500mb
30 30 30 31 32 32 31 29 30 32 32 33 33 34 35 37 37 38 39 40 41 43 43 43 41 37 30 25 42 37 34 16 19 24 50 65 75 78 67 62 66 66 64 79 80 81 88
32 36 36 37 37 37 36 35 35 34 33 34 35 36 38 40 40 40 39 39 40 41 41 42 43 41 26 47 28 30 34 34 28 24 34 57 78 79 84 75 68 78 81 82 89 87 90
36 35 35 34 35 35 35 34 35 34 34 34 35 36 39 42 43 44 42 40 38 39 38 40 42 35 42 57 32 31 32 38 41 39 39 42 58 72 78 67 87 87 72 70 73 73 65
35 36 38 39 40 40 39 37 37 34 30 30 30 32 36 37 40 42 45 46 44 41 38 37 38 26 33 31 41 49 46 51 48 51 48 38 37 65 75 62 63 66 68 61 64 66 72
36 37 38 39 39 41 42 41 39 37 36 37 41 42 44 44 44 42 40 39 36 37 31 26 20 25 45 14 30 32 48 48 44 48 48 52 38 51 52 50 44 54 57 71 62 56 51
39 38 39 40 42 42 41 42 43 42 41 43 46 47 48 48 50 52 52 35 34 23 13 8 19 18 37 31 15 10 7 22 35 41 52 49 44 38 41 44 55 61 66 60 65 53 52
41 42 42 44 43 43 43 42 40 41 41 43 46 49 52 54 55 54 54 40 12 16 24 28 33 32 51 20 27 36 24 23 27 38 49 61 38 55 87 73 66 58 54 63 64 55 58
40 41 44 45 44 44 43 42 40 43 45 46 47 48 52 55 54 49 21 26 23 19 30 53 58 66 62 61 60 53 38 35 36 39 43 48 62 92 52 64 63 67 63 66 57 50 45
40 43 46 46 45 46 45 45 45 46 48 49 49 51 57 58 43 18 27 27 15 24 21 59 59 49 39 33 51 50 48 55 47 44 49 62 88 49 65 61 63 66 67 59 60 47 45
42 45 49 48 47 45 44 46 47 50 51 51 51 52 59 54 24 25 21 18 20 23 13 40 27 18 22 14 18 26 38 50 53 58 46 56 68 64 65 69 68 65 60 55 50 41 40
42 44 47 47 47 46 45 47 50 51 51 52 56 55 46 25 24 16 21 20 18 11 11 8 18 12 9 19 2 12 9 30 42 49 48 66 56 67 72 84 63 75 50 52 52 41 46
42 44 45 46 47 48 49 49 51 52 54 57 60 47 25 20 13 17 23 18 13 11 11 5 5 20 17 18 22 13 21 28 31 38 56 62 67 55 78 65 56 60 54 51 40 37 40
43 44 44 45 47 50 52 52 53 55 55 56 57 28 22 17 19 24 16 17 10 12 5 14 25 14 27 40 30 20 18 26 26 32 43 58 59 55 58 63 70 56 51 32 34 34 44
43 44 46 47 48 50 53 54 55 57 56 55 43 18 22 22 25 18 10 9 11 25 24 36 34 37 37 34 40 26 23 29 36 30 37 45 53 67 56 56 72 64 57 35 58 26 35
44 46 47 47 48 50 53 56 58 58 56 55 25 11 9 24 15 8 16 11 17 25 31 28 37 32 40 27 38 19 32 26 8 9 13 30 56 59 67 49 52 78 56 70 48 39 27
45 46 47 48 49 50 52 57 60 59 54 48 19 11 9 20 16 10 9 15 22 23 25 33 39 23 28 41 17 26 29 8 6 15 9 29 41 58 54 59 66 64 58 44 40 51 39
46 47 49 49 48 49 52 59 59 59 53 35 18 7 8 15 10 16 9 20 29 34 30 20 39 39 36 23 25 34 7 12 11 24 18 38 11 40 66 62 63 50 49 57 43 38 28
47 48 49 48 46 48 55 60 59 53 51 32 13 6 10 12 9 8 14 33 40 42 35 36 22 32 34 31 26 21 18 10 8 20 19 24 13 30 46 57 62 63 58 61 35 49 35
50 49 47 44 45 51 56 60 59 46 39 32 21 8 3 8 8 15 29 36 31 31 32 33 21 27 34 32 19 17 16 17 14 12 9 13 22 27 12 31 60 61 65 53 57 36 38
50 49 46 43 47 53 58 60 57 43 29 16 18 7 4 6 14 16 27 30 29 18 36 32 37 12 18 30 22 15 17 3 18 27 31 16 24 37 12 21 45 60 68 60 55 33 36
49 48 47 45 46 53 57 58 54 40 21 15 10 12 11 10 18 21 29 33 33 23 18 40 22 21 27 33 34 19 17 20 9 13 10 8 35 45 10 42 54 55 61 54 61 44 33
48 49 49 47 43 49 56 56 48 35 20 12 16 14 22 38 19 23 21 27 29 37 19 25 27 39 31 31 32 31 24 18 13 4 11 11 23 39 19 38 54 39 58 50 54 41 38
48 48 50 50 45 46 55 56 44 30 20 10 12 14 11 26 16 12 18 28 40 39 22 29 32 35 31 30 40 50 49 40 33 29 22 18 19 7 12 36 48 32 46 57 44 50 34
46 48 50 51 50 42 48 55 47 24 11 12 15 16 11 17 22 18 31 35 33 35 34 46 28 26 31 50 50 49 49 48 39 33 29 20 27 7 8 27 20 23 24 38 42 41 37
46 48 50 52 55 47 40 52 48 28 11 10 22 10 7 15 39 27 29 32 40 39 30 33 33 30 41 35 21 18 18 27 34 35 32 25 10 7 6 19 30 7 11 7 38 23 23
47 49 50 52 56 53 39 48 48 35 17 15 18 24 14 16 11 41 30 38 26 27 26 32 40 42 21 6 11 19 6 6 3 13 20 13 7 4 12 14 9 14 17 14 4 23 17
49 50 50 52 52 53 42 47 49 42 21 18 21 24 16 19 36 29 30 21 28 21 14 34 45 26 9 6 5 7 9 12 0 5 11 7 5 17 18 17 15 23 25 3 21 13 10
49 51 51 51 54 48 48 48 51 47 28 20 18 27 25 20 58 29 21 33 37 28 9 33 26 9 10 11 7 8 7 8 8 5 9 5 4 10 10 7 8 41 10 6 12 14 17
51 51 50 49 54 53 50 51 48 52 35 22 23 27 27 28 49 49 44 35 31 34 30 8 17 35 12 6 5 7 5 6 11 5 5 1 8 7 9 3 25 21 33 33 29 19 20
Wind_Direction_500mb
17 14 13 10 9 8 5 357 350 346 343 339 336 332 328 323 318 313 308 306 306 310 314 313 312 310 313 254 240 287 289 269 249 256 229 220 222 226 236 232 240 242 245 253 256 261 267
21 26 25 22 16 11 7 3 357 353 348 343 341 337 333 330 327 322 317 312 306 302 301 302 303 302 284 264 255 255 253 257 249 244 237 227 231 231 239 240 240 250 256 256 261 260 265
31 25 19 17 14 9 3 358 353 348 346 346 342 338 333 331 328 326 324 318 310 301 292 288 285 281 270 256 261 265 264 255 247 247 247 240 239 242 241 249 245 254 258 261 260 264 263
28 24 22 20 18 14 9 3 358 354 351 348 345 338 329 326 324 325 323 320 312 300 291 278 272 260 259 266 270 264 258 257 253 244 244 244 251 244 245 258 252 249 253 256 252 252 252
28 25 23 18 14 11 8 5 359 353 350 348 345 340 337 333 330 329 322 321 313 301 289 277 267 226 265 268 250 264 243 247 247 243 240 241 245 245 236 241 252 238 245 240 253 251 252
28 24 18 14 8 5 3 2 2 357 354 348 344 340 335 333 329 330 325 328 315 296 324 265 243 236 251 256 241 267 232 247 247 236 226 221 224 234 232 221 228 228 239 245 255 253 243
28 23 17 9 4 3 2 360 359 357 352 346 342 339 337 333 332 330 327 340 297 247 225 257 285 230 282 252 268 272 270 252 242 232 222 204 208 218 219 218 235 242 246 247 250 250 237
22 18 13 10 10 9 6 2 357 353 348 344 340 337 336 332 333 331 354 326 322 303 296 277 269 262 259 264 270 255 250 240 231 229 219 217 218 222 221 230 228 242 249 249 258 258 256
18 17 15 13 12 11 9 4 359 352 347 342 339 333 332 330 333 357 320 311 299 312 279 283 267 257 251 237 245 245 235 230 240 224 226 221 226 227 226 230 232 231 236 245 254 262 262
17 15 13 12 12 10 7 1 356 352 348 341 336 330 329 326 329 316 322 321 321 317 281 265 196 215 195 231 239 232 234 229 230 237 235 234 238 231 226 231 227 235 228 241 253 259 256
12 11 10 9 8 4 359 354 351 349 347 343 340 331 336 342 316 335 313 317 310 292 278 95 126 136 213 222 25 131 236 220 240 237 230 241 229 232 240 226 228 243 236 236 238 248 263
6 5 4 3 2 359 357 355 350 347 346 344 342 339 353 5 317 326 316 306 289 239 255 22 43 341 264 218 254 251 256 221 252 241 252 244 246 235 232 243 228 238 235 241 237 240 248
1 359 357 356 358 355 354 353 350 348 346 346 345 351 5 355 317 312 305 290 254 262 341 22 338 317 303 293 278 216 262 272 243 214 238 243 247 247 242 220 235 224 222 221 228 228 242
0 358 354 354 355 354 352 351 349 348 347 345 347 14 332 340 324 312 302 260 265 352 1 342 337 309 287 283 276 260 252 253 250 286 287 226 227 233 232 227 214 223 212 210 211 216 235
359 358 356 356 355 356 351 350 348 347 349 344 1 341 326 336 343 317 288 274 350 354 338 323 317 306 289 284 243 271 260 279 333 14 290 291 236 224 228 223 237 211 217 217 240 238 249
354 352 352 353 354 355 351 349 348 347 349 348 354 313 292 341 322 304 275 294 339 356 339 316 308 289 317 316 263 262 270 126 280 276 252 285 277 222 222 217 238 232 210 207 222 243 234
359 354 351 351 353 355 352 350 349 347 349 359 343 300 337 341 338 295 295 312 335 335 321 319 313 312 310 318 306 285 253 151 213 290 260 279 263 257 215 207 214 216 211 212 218 227 230
2 358 356 353 357 360 355 351 351 348 348 5 308 283 355 345 312 254 292 335 309 301 304 305 322 296 305 312 295 289 278 308 213 296 293 261 289 257 225 218 215 215 214 204 220 213 234
1 0 360 360 1 360 357 355 353 357 354 348 309 283 265 358 339 324 324 312 303 328 317 310 303 313 316 311 297 286 340 37 333 317 315 3 237 253 257 249 196 220 209 205 219 222 210
1 0 360 359 358 358 358 356 354 0 359 358 310 296 130 308 330 305 324 310 319 329 323 315 305 317 297 311 310 275 335 107 325 275 273 294 260 256 247 243 197 213 203 206 201 217 197
360 359 355 353 355 358 359 356 354 2 20 0 327 25 350 300 327 323 301 288 302 335 296 306 301 296 289 316 314 339 325 302 328 256 249 262 247 242 271 294 301 210 206 198 194 206 201
356 357 354 352 348 354 358 358 353 1 18 356 335 342 330 299 292 300 308 305 329 330 325 311 323 318 311 298 311 309 304 306 276 328 245 262 273 253 277 274 281 209 213 202 196 199 222
350 353 353 354 348 346 353 356 358 360 19 333 324 323 298 294 282 303 301 321 311 312 313 295 301 307 312 315 319 306 299 287 272 288 289 296 280 229 237 257 260 212 202 196 200 195 213
347 349 349 349 351 343 346 351 355 350 345 301 303 317 299 295 315 319 306 309 308 314 293 300 306 299 311 314 304 284 255 257 259 256 253 261 288 253 265 248 217 201 204 198 192 194 203
343 345 346 346 346 343 341 348 347 348 327 301 294 280 278 287 317 299 329 314 318 314 315 315 326 323 310 312 304 301 242 224 233 234 234 230 261 271 251 229 105 81 150 173 186 151 29
341 342 342 343 344 343 339 347 347 338 316 298 285 279 262 295 292 326 321 314 311 323 314 329 331 324 320 306 302 282 289 157 295 283 209 196 204 235 259 226 169 318 15 21 359 104 43
340 339 336 340 340 342 332 340 347 342 311 284 284 284 253 273 287 313 307 306 303 305 291 302 334 317 342 325 283 302 306 339 27 219 188 194 253 243 259 244 116 336 322 289 206 81 34
329 332 336 334 337 333 332 324 332 339 319 274 278 276 259 271 295 289 298 291 290 287 287 317 318 10 306 360 334 340 324 330 319 25 351 296 223 213 228 235 103 343 50 11 60 72 43
324 327 330 336 337 336 328 327 321 329 325 269 281 262 266 259 275 293 286 277 281 283 275 276 283 314 344 355 321 305 297 302 318 82 58 229 358 317 40 46 295 35 55 42 21 43 28
Wind_Speed_850mb
30 30 30 31 32 32 31 29 30 32 32 33 33 34 35 37 37 38 39 40 41 43 43 43 41 37 30 25 42 37 34 16 19 24 50 65 75 78 67 62 66 66 64 79 80 81 88
32 36 36 37 37 37 36 35 35 34 33 34 35 36 38 40 40 40 39 39 40 41 41 42 43 41 26 47 28 30 34 34 28 24 34 57 78 79 84 75 68 78 81 82 89 87 90
36 35 35 34 35 35 35 34 35 34 34 34 35 36 39 42 43 44 42 40 38 39 38 40 42 35 42 57 32 31 32 38 41 39 39 42 58 72 78 67 87 87 72 70 73 73 65
35 36 38 39 40 40 39 37 37 34 30 30 30 32 36 37 40 42 45 46 44 41 38 37 38 26 33 31 41 49 46 51 48 51 48 38 37 65 75 62 63 66 68 61 64 66 72
36 37 38 39 39 41 42 41 39 37 36 37 41 42 44 44 44 42 40 39 36 37 31 26 20 25 45 14 30 32 48 48 44 48 48 52 38 51 52 50 44 54 57 71 62 56 51
39 38 39 40 42 42 41 42 43 42 41 43 46 47 48 48 50 52 52 35 34 23 13 8 19 18 37 31 15 10 7 22 35 41 52 49 44 38 41 44 55 61 66 60 65 53 52
41 42 42 44 43 43 43 42 40 41 41 43 46 49 52 54 55 54 54 40 12 16 24 28 33 32 51 20 27 36 24 23 27 38 49 61 38 55 87 73 66 58 54 63 64 55 58
40 41 44 45 44 44 43 42 40 43 45 46 47 48 52 55 54 49 21 26 23 19 30 53 58 66 62 61 60 53 38 35 36 39 43 48 62 92 52 64 63 67 63 66 57 50 45
40 43 46 46 45 46 45 45 45 46 48 49 49 51 57 58 43 18 27 27 15 24 21 59 59 49 39 33 51 50 48 55 47 44 49 62 88 49 65 61 63 66 67 59 60 47 45
42 45 49 48 47 45 44 46 47 50 51 51 51 52 59 54 24 25 21 18 20 23 13 40 27 18 22 14 18 26 38 50 53 58 46 56 68 64 65 69 68 65 60 55 50 41 40
42 44 47 47 47 46 45 47 50 51 51 52 56 55 46 25 24 16 21 20 18 11 11 8 18 12 9 19 2 12 9 30 42 49 48 66 56 67 72 84 63 75 50 52 52 41 46
42 44 45 46 47 48 49 49 51 52 54 57 60 47 25 20 13 17 23 18 13 11 11 5 5 20 17 18 22 13 21 28 31 38 56 62 67 55 78 65 56 60 54 51 40 37 40
43 44 44 45 47 50 52 52 53 55 55 56 57 28 22 17 19 24 16 17 10 12 5 14 25 14 27 40 30 20 18 26 26 32 43 58 59 55 58 63 70 56 51 32 34 34 44
43 44 46 47 48 50 53 54 55 57 56 55 43 18 22 22 25 18 10 9 11 25 24 36 34 37 37 34 40 26 23 29 36 30 37 45 53 67 56 56 72 64 57 35 58 26 35
44 46 47 47 48 50 53 56 58 58 56 55 25 11 9 24 15 8 16 11 17 25 31 28 37 32 40 27 38 19 32 26 8 9 13 30 56 59 67 49 52 78 56 70 48 39 27
45 46 47 48 49 50 52 57 60 59 54 48 19 11 9 20 16 10 9 15 22 23 25 33 39 23 28 41 17 26 29 8 6 15 9 29 41 58 54 59 66 64 58 44 40 51 39
46 47 49 49 48 49 52 59 59 59 53 35 18 7 8 15 10 16 9 20 29 34 30 20 39 39 36 23 25 34 7 12 11 24 18 38 11 40 66 62 63 50 49 57 43 38 28
47 48 49 48 46 48 55 60 59 53 51 32 13 6 10 12 9 8 14 33 40 42 35 36 22 32 34 31 26 21 18 10 8 20 19 24 13 30 46 57 62 63 58 61 35 49 35
50 49 47 44 45 51 56 60 59 46 39 32 21 8 3 8 8 15 29 36 31 31 32 33 21 27 34 32 19 17 16 17 14 12 9 13 22 27 12 31 60 61 65 53 57 36 38
50 49 46 43 47 53 58 60 57 43 29 16 18 7 4 6 14 16 27 30 29 18 36 32 37 12 18 30 22 15 17 3 18 27 31 16 24 37 12 21 45 60 68 60 55 33 36
49 48 47 45 46 53 57 58 54 40 21 15 10 12 11 10 18 21 29 33 33 23 18 40 22 21 27 33 34 19 17 20 9 13 10 8 35 45 10 42 54 55 61 54 61 44 33
48 49 49 47 43 49 56 56 48 35 20 12 16 14 22 38 19 23 21 27 29 37 19 25 27 39 31 31 32 31 24 18 13 4 11 11 23 39 19 38 54 39 58 50 54 41 38
48 48 50 50 45 46 55 56 44 30 20 10 12 14 11 26 16 12 18 28 40 39 22 29 32 35 31 30 40 50 49 40 33 29 22 18 19 7 12 36 48 32 46 57 44 50 34
46 48 50 51 50 42 48 55 47 24 11 12 15 16 11 17 22 18 31 35 33 35 34 46 28 26 31 50 50 49 49 48 39 33 29 20 27 7 8 27 20 23 24 38 42 41 37
46 48 50 52 55 47 40 52 48 28 11 10 22 10 7 15 39 27 29 32 40 39 30 33 33 30 41 35 21 18 18 27 34 35 32 25 10 7 6 19 30 7 11 7 38 23 23
47 49 50 52 56 53 39 48 48 35 17 15 18 24 14 16 11 41 30 38 26 27 26 32 40 42 21 6 11 19 6 6 3 13 20 13 7 4 12 14 9 14 17 14 4 23 17
49 50 50 52 52 53 42 47 49 42 21 18 21 24 16 19 36 29 30 21 28 21 14 34 45 26 9 6 5 7 9 12 0 5 11 7 5 17 18 17 15 23 25 3 21 13 10
49 51 51 51 54 48 48 48 51 47 28 20 18 27 25 20 58 29 21 33 37 28 9 33 26 9 10 11 7 8 7 8 8 5 9 5 4 10 10 7 8 41 10 6 12 14 17
51 51 50 49 54 53 50 51 48 52 35 22 23 27 27 28 49 49 44 35 31 34 30 8 17 35 12 6 5 7 5 6 11 5 5 1 8 7 9 3 25 21 33 33 29 19 20
Wind_Direction_850mb
17 14 13 10 9 8 5 357 350 346 343 339 336 332 328 323 318 313 308 306 306 310 314 313 312 310 313 254 240 287 289 269 249 256 229 220 222 226 236 232 240 242 245 253 256 261 267
21 26 25 22 16 11 7 3 357 353 348 343 341 337 333 330 327 322 317 312 306 302 301 302 303 302 284 264 255 255 253 257 249 244 237 227 231 231 239 240 240 250 256 256 261 260 265
31 25 19 17 14 9 3 358 353 348 346 346 342 338 333 331 328 326 324 318 310 301 292 288 285 281 270 256 261 265 264 255 247 247 247 240 239 242 241 249 245 254 258 261 260 264 263
28 24 22 20 18 14 9 3 358 354 351 348 345 338 329 326 324 325 323 320 312 300 291 278 272 260 259 266 270 264 258 257 253 244 244 244 251 244 245 258 252 249 253 256 252 252 252
28 25 23 18 14 11 8 5 359 353 350 348 345 340 337 333 330 329 322 321 313 301 289 277 267 226 265 268 250 264 243 247 247 243 240 241 245 245 236 241 252 238 245 240 253 251 252
28 24 18 14 8 5 3 2 2 357 354 348 344 340 335 333 329 330 325 328 315 296 324 265 243 236 251 256 241 267 232 247 247 236 226 221 224 234 232 221 228 228 239 245 255 253 243
28 23 17 9 4 3 2 360 359 357 352 346 342 339 337 333 332 330 327 340 297 247 225 257 285 230 282 252 268 272 270 252 242 232 222 204 208 218 219 218 235 242 246 247 250 250 237
22 18 13 10 10 9 6 2 357 353 348 344 340 337 336 332 333 331 354 326 322 303 296 277 269 262 259 264 270 255 250 240 231 229 219 217 218 222 221 230 228 242 249 249 258 258 256
18 17 15 13 12 11 9 4 359 352 347 342 339 333 332 330 333 357 320 311 299 312 279 283 267 257 251 237 245 245 235 230 240 224 226 221 226 227 226 230 232 231 236 245 254 262 262
17 15 13 12 12 10 7 1 356 352 348 341 336 330 329 326 329 316 322 321 321 317 281 265 196 215 195 231 239 232 234 229 230 237 235 234 238 231 226 231 227 235 228 241 253 259 256
12 11 10 9 8 4 359 354 351 349 347 343 340 331 336 342 316 335 313 317 310 292 278 95 126 136 213 222 25 131 236 220 240 237 230 241 229 232 240 226 228 243 236 236 238 248 263
6 5 4 3 2 359 357 355 350 347 346 344 342 339 353 5 317 326 316 306 289 239 255 22 43 341 264 218 254 251 256 221 252 241 252 244 246 235 232 243 228 238 235 241 237 240 248
1 359 357 356 358 355 354 353 350 348 346 346 345 351 5 355 317 312 305 290 254 262 341 22 338 317 303 293 278 216 262 272 243 214 238 243 247 247 242 220 235 224 222 221 228 228 242
0 358 354 354 355 354 352 351 349 348 347 345 347 14 332 340 324 312 302 260 265 352 1 342 337 309 287 283 276 260 252 253 250 286 287 226 227 233 232 227 214 223 212 210 211 216 235
359 358 356 356 355 356 351 350 348 347 349 344 1 341 326 336 343 317 288 274 350 354 338 323 317 306 289 284 243 271 260 279 333 14 290 291 236 224 228 223 237 211 217 217 240 238 249
354 352 352 353 354 355 351 349 348 347 349 348 354 313 292 341 322 304 275 294 339 356 339 316 308 289 317 316 263 262 270 126 280 276 252 285 277 222 222 217 238 232 210 207 222 243 234
359 354 351 351 353 355 352 350 349 347 349 359 343 300 337 341 338 295 295 312 335 335 321 319 313 312 310 318 306 285 253 151 213 290 260 279 263 257 215 207 214 216 211 212 218 227 230
2 358 356 353 357 360 355 351 351 348 348 5 308 283 355 345 312 254 292 335 309 301 304 305 322 296 305 312 295 289 278 308 213 296 293 261 289 257 225 218 215 215 214 204 220 213 234
1 0 360 360 1 360 357 355 353 357 354 348 309 283 265 358 339 324 324 312 303 328 317 310 303 313 316 311 297 286 340 37 333 317 315 3 237 253 257 249 196 220 209 205 219 222 210
1 0 360 359 358 358 358 356 354 0 359 358 310 296 130 308 330 305 324 310 319 329 323 315 305 317 297 311 310 275 335 107 325 275 273 294 260 256 247 243 197 213 203 206 201 217 197
360 359 355 353 355 358 359 356 354 2 20 0 327 25 350 300 327 323 301 288 302 335 296 306 301 296 289 316 314 339 325 302 328 256 249 262 247 242 271 294 301 210 206 198 194 206 201
356 357 354 352 348 354 358 358 353 1 18 356 335 342 330 299 292 300 308 305 329 330 325 311 323 318 311 298 311 309 304 306 276 328 245 262 273 253 277 274 281 209 213 202 196 199 222
350 353 353 354 348 346 353 356 358 360 19 333 324 323 298 294 282 303 301 321 311 312 313 295 301 307 312 315 319 306 299 287 272 288 289 296 280 229 237 257 260 212 202 196 200 195 213
347 349 349 349 351 343 346 351 355 350 345 301 303 317 299 295 315 319 306 309 308 314 293 300 306 299 311 314 304 284 255 257 259 256 253 261 288 253 265 248 217 201 204 198 192 194 203
343 345 346 346 346 343 341 348 347 348 327 301 294 280 278 287 317 299 329 314 318 314 315 315 326 323 310 312 304 301 242 224 233 234 234 230 261 271 251 229 105 81 150 173 186 151 29
341 342 342 343 344 343 339 347 347 338 316 298 285 279 262 295 292 326 321 314 311 323 314 329 331 324 320 306 302 282 289 157 295 283 209 196 204 235 259 226 169 318 15 21 359 104 43
340 339 336 340 340 342 332 340 347 342 311 284 284 284 253 273 287 313 307 306 303 305 291 302 334 317 342 325 283 302 306 339 27 219 188 194 253 243 259 244 116 336 322 289 206 81 34
329 332 336 334 337 333 332 324 332 339 319 274 278 276 259 271 295 289 298 291 290 287 287 317 318 10 306 360 334 340 324 330 319 25 351 296 223 213 228 235 103 343 50 11 60 72 43
324 327 330 336 337 336 328 327 321 329 325 269 281 262 266 259 275 293 286 277 281 283 275 276 283 314 344 355 321 305 297 302 318 82 58 229 358 317 40 46 295 35 55 42 21 43 28